Terminal Aerodrome Forecast
Issued by NWS

Home | Current Version | Previous Version | Graphics & Text | Print | Product List | Glossary On
Versions: 1 2 3 4 5 6 7 8 9 10 11 12 13
000
FTUS43 KBIS 291700
TAFJMS
TAF
KJMS 291720Z 2918/3018 34007KT P6SM BKN050
     FM300000 VRB05KT P6SM SCT060=

USA.gov is the U.S. government's official web portal to all federal, state and local government web resources and services.